Location: Unspecified
(38.0989°N, 0.6729°W)
Time: 09:17:49
(UTC+02:00)

OTV 5 (USA 277) - Visible Passes

Search period start: 23 September 2017 00:00
Search period end: 03 October 2017 00:00
Orbit: 404 x 417 km, 43.0° (Epoch: 07 September)

Date Brightness Start Highest point End Pass type
(mag) Time Alt. Az. Time Alt. Az. Time Alt. Az.
23 Sep ? 06:01:10 40° NNE 06:01:10 40° NNE 06:03:46 10° ENE visible
24 Sep ? 05:12:31 11° ENE 05:12:31 11° ENE 05:12:43 10° ENE visible
24 Sep ? 06:45:16 18° NW 06:47:07 33° N 06:50:08 10° ENE visible
25 Sep ? 05:56:38 30° NNE 05:56:38 30° NNE 05:58:59 10° ENE visible
26 Sep ? 06:40:46 21° NW 06:42:31 37° N 06:45:36 10° ENE visible
27 Sep ? 05:52:12 28° NE 05:52:12 28° NE 05:54:23 10° ENE visible
27 Sep ? 07:25:37 10° WNW 07:28:55 78° NNE 07:32:12 10° ESE visible
28 Sep ? 06:36:28 30° NW 06:37:50 56° NNE 06:41:05 10° E visible
29 Sep ? 05:48:02 27° ENE 05:48:02 27° ENE 05:49:53 10° E visible
29 Sep ? 07:20:52 10° WNW 07:24:03 45° SSW 07:27:12 10° SE visible
30 Sep ? 06:32:30 56° W 06:33:02 71° SSW 06:36:17 10° ESE visible
01 Oct ? 05:44:18 18° ESE 05:44:18 18° ESE 05:45:16 10° ESE visible
01 Oct ? 07:17:05 12° WSW 07:19:00 19° SW 07:21:23 10° S visible
02 Oct ? 06:29:00 24° S 06:29:00 24° S 06:30:58 10° SSE visible
